Starlink 31463

operational
NORAD ID: 59296 Int'l Des: 2024-056 Owner: SPXS Country: US Constellation: starlink
LEOCIRCULAR

About Starlink 31463

Description loading...

Live Position

Loading 3D Globe...

Upcoming Passes

Altitude History

Altitude vs Time

uPlot chart will show altitude changes over time

Two-Line Element Set

1 59296U 24056A 26070.47871911 .00001396 00000-0 60233-4 0 9998
2 59296 43.0004 216.6559 0001558 265.1118 94.9555 15.27580591111475
Epoch: Mar 11, 2026 • Age: 32 hours

Current Status

Altitude 484.9 km
Velocity 7.63 km/s
Sub-Earth Point 32.47°N, 37.17°W
Launch Date Mar 24, 2024
Age 1.9 years
Type internet

Technical Details

Classification Payload
Mass 730.00 kg
Dry Mass 700.00 kg
Total Mass 730.00 kg
Length 0.30 m
Diameter 4.10 m
Span 29.00 m
Shape Box + pan
Manufacturer SPXS
Bus Type Starlink V2M
Phase Status In Orbit
Owner/State SPXS/US

Large Constellations

Loading constellations...